This is the latest recevied weather packets stored in our database for station/object K1BES. If no packets are shown the sender has not sent any weather packets the latest 10 day(s).
| Time | Temp. | Humidity | Pressure | Rain* | Wind** | Luminosity | Snow |
|---|---|---|---|---|---|---|---|
| 1788135531 | 25° C | 94% | 1018.5 hPa | 0 mm | - | 0 W/m² | - |
| 1788135231 | 25° C | 94% | 1018.3 hPa | 0 mm | - | 0 W/m² | - |
| 1788134929 | 25° C | 94% | 1018.3 hPa | 0 mm | - | 0 W/m² | - |
| 1788134624 | 25° C | 94% | 1018.4 hPa | 0 mm | - | 0 W/m² | - |
| 1788134322 | 25° C | 94% | 1018.4 hPa | 0 mm | - | 1 W/m² | - |
| 1788134017 | 25° C | 94% | 1018.3 hPa | 0 mm | - | 1 W/m² | - |
| 1788133712 | 25° C | 93% | 1018.2 hPa | 0 mm | - | 3 W/m² | - |
| 1788133408 | 25° C | 93% | 1018.3 hPa | 0 mm | - | 5 W/m² | - |
| 1788133104 | 25° C | 93% | 1018.2 hPa | 0 mm | - | 7 W/m² | - |
| 1788132799 | 25° C | 93% | 1018.5 hPa | 0 mm | - | 10 W/m² | - |
| 1788132495 | 25° C | 93% | 1018.1 hPa | 0 mm | - | 14 W/m² | - |
| 1788132190 | 25° C | 93% | 1018.1 hPa | 0 mm | - | 18 W/m² | - |
| 1788131887 | 25° C | 93% | 1018.2 hPa | 0 mm | - | 21 W/m² | - |
| 1788131587 | 25° C | 93% | 1018.1 hPa | 0 mm | - | 24 W/m² | - |
| 1788131281 | 25° C | 93% | 1017.9 hPa | 0 mm | - | 27 W/m² | - |
| 1788130977 | 25° C | 93% | 1017.8 hPa | 0 mm | - | 31 W/m² | - |
| 1788130676 | 25° C | 93% | 1017.8 hPa | 0 mm | - | 35 W/m² | - |
| 1788130371 | 25° C | 93% | 1017.9 hPa | 0 mm | - | 39 W/m² | - |
| 1788130070 | 25° C | 93% | 1017.8 hPa | 0 mm | - | 44 W/m² | - |
| 1788129766 | 25° C | 93% | 1018 hPa | 0 mm | - | 49 W/m² | - |
| 1788129462 | 25° C | 93% | 1017.9 hPa | 0 mm | - | 54 W/m² | - |
| 1788129158 | 25° C | 93% | 1017.7 hPa | 0 mm | - | 61 W/m² | - |
| 1788128852 | 25° C | 93% | 1017.9 hPa | 0 mm | - | 64 W/m² | - |
| 1788128547 | 25° C | 93% | 1017.8 hPa | 0 mm | - | 66 W/m² | - |
| 1788128243 | 25° C | 93% | 1017.9 hPa | 0 mm | - | 68 W/m² | - |
* Rain latest hour (hover to see other rain measurements)
** Current wind speed in m/s (hover to see current wind gust speed)